"Pseudo-MPEC" for ZTF0NSb

Created 2021 Nov 29 20:07:52 UT using Find_Orb

Click here for an explanation of pseudo-MPECs

 
 Astrometry: 
     ZTF0NSb  C2021 11 12.24969902 55 53.29 -12 34 42.1    ~BC8b 17.42RUNEOCPI41
     ZTF0NSb  C2021 11 12.25004602 55 55.34 -12 34 08.0    ~BC8b 17.42RUNEOCPI41
     ZTF0NSb  C2021 11 12.25655102 56 35.56 -12 23 29.5    ~BC8b 17.47RUNEOCPI41
     ZTF0NSb  C2021 11 12.25689802 56 37.57 -12 22 55.9    ~BC8b 17.47RUNEOCPI41
     ZTF0NSb  C2021 11 12.33659703 04 57.73 -10 07 20.1    ~BEHq 17.21RUNEOCPI41
     ZTF0NSb  C2021 11 12.33694403 04 59.91 -10 06 44.4    ~BEHq 17.21RUNEOCPI41

Station data:
(I41) Palomar Mountain--ZTF  (N33.357340 W116.859780)  US/California. 1.2-m
   f/2.44 Oschin Schmidt + CCD.

Orbital elements:  ZTF0NSb
   Perigee 2021 Nov 12.866755 +/- 0.0297456 TT = 20:48:07 (JD 2459531.366755)
Epoch 2021 Nov 12.0 TT = JDT 2459530.5                        AutoNEOCP
q676519.826 +/- 110705              (J2000 equator)
H   28.1  G 0.15                    Peri.   10.89589 +/- 2.0116784
                                    Node    55.78490 +/- 0.4025754
e  75.8646939 +/- 41.5785           Incl.   46.34822 +/- 0.2718696
From 6 observations 2021 Nov. 12 (2.1 hr); mean residual 0".54
Residuals in arcseconds: 
211112 I41  .61+  .07-    211112 I41  1.0+  .27+    211112 I41  .29+  .47+    
211112 I41  .67-  .09+    211112 I41  .93-  .29-    211112 I41  .29-  .47-    

Ephemerides (geocentric):
Date (UTC) HH   RA              Dec         delta   r     elong  mag " sig PA
---- -- -- --  -------------   -----------  ------ ------ -----  --- ---- ---
2021 11 29 20  10 24 33.240   +46 00 36.22  .06456 1.0050 105.1 24.6 2130 150
2021 11 29 21  10 24 35.740   +46 00 35.24  .06472 1.0051 105.1 24.6 2131 150
2021 11 29 22  10 24 38.220   +46 00 34.29  .06487 1.0052 105.1 24.6 2131 150
2021 11 29 23  10 24 40.679   +46 00 33.38  .06502 1.0053 105.1 24.6 2132 150
2021 11 30 00  10 24 43.117   +46 00 32.49  .06518 1.0053 105.2 24.6 2132 150
2021 11 30 01  10 24 45.536   +46 00 31.63  .06533 1.0054 105.2 24.7 2133 150
2021 11 30 02  10 24 47.934   +46 00 30.81  .06548 1.0055 105.2 24.7 2133 150
2021 11 30 03  10 24 50.312   +46 00 30.02  .06564 1.0056 105.2 24.7 2133 150
2021 11 30 04  10 24 52.670   +46 00 29.25  .06579 1.0056 105.3 24.7 2134 150
2021 11 30 05  10 24 55.009   +46 00 28.52  .06594 1.0057 105.3 24.7 2134 150
2021 11 30 06  10 24 57.327   +46 00 27.82  .06610 1.0058 105.3 24.7 2135 150
2021 11 30 07  10 24 59.626   +46 00 27.14  .06625 1.0059 105.4 24.7 2135 150
2021 11 30 08  10 25 01.906   +46 00 26.50  .06640 1.0059 105.4 24.7 2136 150
2021 11 30 09  10 25 04.166   +46 00 25.89  .06656 1.0060 105.4 24.7 2136 150
2021 11 30 10  10 25 06.406   +46 00 25.30  .06671 1.0061 105.4 24.7 2137 150
2021 11 30 11  10 25 08.628   +46 00 24.75  .06686 1.0062 105.5 24.7 2137 150
2021 11 30 12  10 25 10.830   +46 00 24.23  .06701 1.0062 105.5 24.7 2138 150
2021 11 30 13  10 25 13.013   +46 00 23.73  .06717 1.0063 105.5 24.7 2138 150
2021 11 30 14  10 25 15.177   +46 00 23.27  .06732 1.0064 105.6 24.7 2139 150
2021 11 30 15  10 25 17.323   +46 00 22.83  .06747 1.0065 105.6 24.7 2139 150
2021 11 30 16  10 25 19.449   +46 00 22.43  .06763 1.0065 105.6 24.7 2140 150
2021 11 30 17  10 25 21.557   +46 00 22.05  .06778 1.0066 105.6 24.7 2140 150
2021 11 30 18  10 25 23.646   +46 00 21.70  .06793 1.0067 105.7 24.7 2140 150
2021 11 30 19  10 25 25.717   +46 00 21.38  .06808 1.0068 105.7 24.7 2141 150
2021 11 30 20  10 25 27.769   +46 00 21.09  .06824 1.0068 105.7 24.7 2141 150
2021 11 30 21  10 25 29.803   +46 00 20.83  .06839 1.0069 105.8 24.7 2142 150
2021 11 30 22  10 25 31.818   +46 00 20.59  .06854 1.0070 105.8 24.7 2142 150
2021 11 30 23  10 25 33.815   +46 00 20.39  .06869 1.0071 105.8 24.7 2143 150
2021 12 01 00  10 25 35.795   +46 00 20.21  .06885 1.0071 105.9 24.7 2143 150
2021 12 01 01  10 25 37.756   +46 00 20.06  .06900 1.0072 105.9 24.7 2144 150
2021 12 01 02  10 25 39.699   +46 00 19.94  .06915 1.0073 105.9 24.8 2144 150
2021 12 01 03  10 25 41.625   +46 00 19.85  .06930 1.0074 105.9 24.8 2145 150
2021 12 01 04  10 25 43.532   +46 00 19.79  .06946 1.0075 106.0 24.8 2145 150
2021 12 01 05  10 25 45.422   +46 00 19.75  .06961 1.0075 106.0 24.8 2145 150
2021 12 01 06  10 25 47.294   +46 00 19.74  .06976 1.0076 106.0 24.8 2146 150
2021 12 01 07  10 25 49.149   +46 00 19.76  .06991 1.0077 106.1 24.8 2146 150
2021 12 01 08  10 25 50.986   +46 00 19.81  .07007 1.0078 106.1 24.8 2147 150
2021 12 01 09  10 25 52.806   +46 00 19.88  .07022 1.0078 106.1 24.8 2147 150
2021 12 01 10  10 25 54.609   +46 00 19.98  .07037 1.0079 106.1 24.8 2148 150
2021 12 01 11  10 25 56.394   +46 00 20.11  .07052 1.0080 106.2 24.8 2148 150
2021 12 01 12  10 25 58.163   +46 00 20.27  .07068 1.0081 106.2 24.8 2149 150
2021 12 01 13  10 25 59.914   +46 00 20.45  .07083 1.0082 106.2 24.8 2149 150
2021 12 01 14  10 26 01.648   +46 00 20.66  .07098 1.0083 106.3 24.8 2149 150
2021 12 01 15  10 26 03.365   +46 00 20.90  .07113 1.0083 106.3 24.8 2150 150
2021 12 01 16  10 26 05.065   +46 00 21.16  .07128 1.0084 106.3 24.8 2150 150
2021 12 01 17  10 26 06.749   +46 00 21.45  .07144 1.0085 106.4 24.8 2151 150
2021 12 01 18  10 26 08.416   +46 00 21.76  .07159 1.0086 106.4 24.8 2151 150
2021 12 01 19  10 26 10.066   +46 00 22.11  .07174 1.0087 106.4 24.8 2152 150